www.pogodaiklimat.ru

Погода и климат >> Архив погоды >> Великобритания >> Чарлвуд


ПОГОДА в Чарлвуде

  • Прогноз погоды в Чарлвуде
  • Монитор погоды в Чарлвуде

АРХИВ ПОГОДЫ в Чарлвуде

Время (UTC), дата Ветер
(напр.,м/с)
 
Видим.   Явления Облачность Т
(С)
Тd
(С)
f
(%)
Тe
(С)
Тes
(С)
Комфортность P
(гПа)
Po
(гПа)
Тmin
(С)
Tmax
(С)
R
(мм)
R24
(мм)
S
(см)
22 10.06 СЗ 1 8000 м дождь н/о +11.0 +10.4 96 +11 +11 1009.8 1001.7
23 10.06 С 2 23 км в посл. час дождь н/о +11.3 +10.7 96 +10 +10 1009.6 1001.5
00 11.06 СВ 2 21 км н/о +10.8 +10.3 97 +10 +10 1009.4 1001.3 6
01 11.06 ЮВ 2 700 м туман н/о +10.0 +9.4 96 +8 +8 1009.6 1001.5
02 11.06 Ю 1 2400 м в посл. час туман н/о +9.8 +9.2 96 +9 +9 1009.3 1001.2
03 11.06 СВ 1 2600 м дымка н/о +9.9 +9.4 97 +9 +9 1009.6 1001.4
04 11.06 В 2 3200 м дымка н/о +10.0 +9.5 97 +9 +9 1009.5 1001.4
05 11.06 В 1 6000 м дымка н/о +10.3 +9.8 97 +10 +10 1010.2 1002.1
06 11.06 ЮВ 2 30 км н/о +11.1 +10.5 96 +10 +10 1010.3 1002.2 +9.1 6
07 11.06 ЮВ 2 40 км н/о +12.8 +9.1 78 +12 +12 1010.7 1002.7
08 11.06 ЮЗ 2 45 км н/о +12.8 +8.2 74 +12 +12 1011.0 1002.9
09 11.06 Ю 2 45 км н/о +14.0 +8.8 71 +14 +14 1011.5 1003.5
10 11.06 Ю 2 50 км н/о +16.8 +9.2 61 +17 +17 1011.4 1003.4
11 11.06 Ю 2 40 км н/о +16.5 +8.3 58 +17 +17 1011.5 1003.5
12 11.06 ЮВ 2 50 км н/о +17.7 +8.3 54 +18 +18 1011.6 1003.7 0.2
13 11.06 Ю 2 40 км н/о +17.8 +6.0 46 +19 +19 1011.5 1003.6
14 11.06 ЮЗ 1 50 км н/о +17.4 +7.8 53 +19 +19 1011.5 1003.6
15 11.06 Ю 2 40 км н/о +19.4 +9.9 54 +21 +21 комфорт 1011.4 1003.5
16 11.06 Ю 2 40 км н/о +17.4 +9.2 59 +18 +18 1011.3 1003.3
17 11.06 СЗ 2 45 км н/о +15.5 +11.3 76 +15 +15 1011.3 1003.3
18 11.06 СЗ 1 20 км ливневой дождь н/о +13.6 +11.3 86 +14 +14 1011.7 1003.7 +19.5 0.2
19 11.06 С 2 50 км в посл. час дождь н/о +13.1 +11.1 88 +13 +13 1012.0 1003.9
20 11.06 С 2 40 км н/о +12.3 +10.6 89 +11 +11 1012.3 1004.2
21 11.06 С 2 25 км н/о +11.9 +10.2 89 +11 +11 1012.4 1004.4
22 11.06 С 2 18 км н/о +11.5 +10.1 91 +10 +10 1012.4 1004.3
23 11.06 С 2 14 км н/о +11.1 +9.8 92 +10 +10 1011.9 1003.8
00 12.06 С 2 12 км н/о +11.4 +10.4 94 +10 +10 1011.6 1003.5 0.2
01 12.06 С 2 10 км дым н/о +11.5 +10.5 94 +10 +10 1011.3 1003.2
02 12.06 С 2 10 км н/о +11.4 +10.3 93 +10 +10 1010.5 1002.4
03 12.06 С 2 8000 м дым н/о +11.3 +10.3 94 +10 +10 1010.4 1002.3
04 12.06 СВ 2 15 км н/о +10.9 +9.8 93 +9 +9 1010.5 1002.4
05 12.06 СВ 4 21 км н/о +11.1 +9.9 92 +9 +9 1010.3 1002.2
06 12.06 СВ 2 30 км н/о +11.5 +9.8 89 +10 +10 1010.5 1002.4 +10.8 0.2
07 12.06 СВ 2 10 км в посл. час дождь н/о +12.0 +10.0 88 +11 +11 1010.2 1002.1
08 12.06 СВ 2 21 км слаб. ливневой дождь н/о +12.3 +10.1 86 +11 +11 1009.6 1001.6
09 12.06 СВ 2 24 км в посл. час дождь н/о +14.4 +10.5 77 +14 +14 1009.3 1001.3
10 12.06 С 2 40 км н/о +15.1 +11.1 77 +15 +15 1009.0 1001.1
11 12.06 С 1 40 км н/о +14.8 +10.3 74 +15 +15 1009.2 1001.2
12 12.06 Ю 2 9000 м ливневой дождь н/о +13.8 +10.9 83 +13 +13 1009.2 1001.2 0.4
13 12.06 ЮЗ 3 3100 м сильн. дождь н/о +12.3 +11.0 92 +11 +11 1009.2 1001.2
14 12.06 Ю 2 3900 м дождь н/о +11.8 +10.9 94 +11 +11 1009.4 1001.4
15 12.06 С 1 7000 м дождь н/о +11.8 +10.9 94 +12 +12 1009.2 1001.2
16 12.06 СВ 1 10 км дождь н/о +11.6 +10.8 95 +11 +11 1008.7 1000.7
17 12.06 В 1 11 км дождь н/о +12.1 +10.9 92 +13 +13 1008.7 1000.6
18 12.06 ЮВ 1 18 км слаб. дождь н/о +12.1 +10.7 91 +13 +13 1008.2 1000.2 +15.2 17
19 12.06 ЮЗ 2 11 км дождь н/о +11.7 +10.6 93 +10 +10 1008.0 999.9
20 12.06 ЮЗ 1 11 км в посл. час дождь н/о +11.2 +10.1 93 +11 +11 1008.0 999.9
21 12.06 ЮЗ 2 15 км слаб. ливневой дождь н/о +10.9 +10.1 95 +10 +10 1008.1 1000.0
22 12.06 З 1 6000 м в посл. час дождь н/о +10.7 +10.0 95 +10 +10 1008.0 999.9
23 12.06 ЮЗ 3 7000 м дымка н/о +11.2 +10.5 95 +9 +9 1007.5 999.4
00 13.06 ЮЗ 1 2700 м дымка н/о +10.9 +10.2 95 +10 +10 1007.1 999.0 0.6
01 13.06 ЮЗ 2 3800 м слаб. ливневой дождь н/о +11.0 +10.4 96 +10 +10 1006.6 998.5
02 13.06 ЮЗ 2 8000 м слаб. дождь н/о +10.6 +10.0 96 +9 +9 1006.1 998.0
03 13.06 ЮЗ 2 11 км слаб. морось н/о +10.7 +10.2 97 +9 +9 1005.8 997.7
04 13.06 ЮЗ 2 7000 м в посл. час дождь н/о +10.7 +10.2 97 +9 +9 1005.8 997.7
05 13.06 ЮЗ 3 6000 м в посл. час дождь н/о +11.1 +10.6 97 +9 +9 1005.7 997.7
06 13.06 ЮЗ 4 11 км в посл. час дождь н/о +11.8 +11.3 97 +10 +10 1005.6 997.6 +10.6 1
07 13.06 ЮЗ 5 30 км н/о +12.8 +11.3 91 +11 +11 1005.6 997.6
08 13.06 ЮЗ 5 45 км н/о +13.4 +11.3 87 +11 +11 1005.6 997.7
09 13.06 ЮЗ 5 50 км н/о +13.6 +10.5 82 +12 +12 1005.6 997.6
10 13.06 ЮЗ 6 50 км н/о +15.0 +10.3 73 +13 +13 1005.7 997.8
11 13.06 ЮЗ 7 40 км н/о +14.7 +8.9 68 +13 +13 1005.8 997.9
12 13.06 ЮЗ 6 45 км н/о +14.0 +9.2 73 +12 +12 1005.9 997.9
13 13.06 ЮЗ 7-13
{13}
14 км н/о +14.3 +8.5 68 +12 +12 1006.1 998.1
14 13.06 ЮЗ 6 23 км слаб. морось с дождем н/о +13.1 +10.5 84 +11 +11 1006.2 998.2
15 13.06 ЮЗ 7-14
{14}
35 км в посл. час дождь н/о +14.3 +9.7 74 +12 +12 1006.2 998.2
16 13.06 ЮЗ 6-11
{13}
8000 м слаб. морось с дождем н/о +12.6 +10.6 88 +10 +10 1006.4 998.3
17 13.06 ЮЗ 6 35 км в посл. час дождь н/о +13.7 +10.4 80 +12 +12 1006.2 998.2
18 13.06 ЮЗ 5 30 км в посл. час дождь н/о +13.2 +10.0 81 +11 +11 1006.5 998.5 +15.3 0.4
19 13.06 ЮЗ 5 11 км слаб. ливневой дождь н/о +12.7 +10.4 86 +11 +11 1007.2 999.1
20 13.06 ЮЗ 4 7000 м слаб. морось н/о +12.0 +10.9 93 +10 +10 1007.6 999.6
21 13.06 ЮЗ 4 23 км в посл. час морось н/о +12.1 +11.1 94 +10 +10 1008.5 1000.4
22 13.06 ЮЗ 3 26 км н/о +12.1 +10.9 92 +11 +11 1008.8 1000.8
23 13.06 ЮЗ 2 24 км н/о +12.1 +10.8 92 +11 +11 1009.0 1001.0
00 14.06 ЮЗ 3 22 км н/о +12.4 +10.9 91 +11 +11 1009.1 1001.0 0.4
01 14.06 ЮЗ 3 25 км в посл. час дождь н/о +12.4 +10.9 91 +11 +11 1009.0 1000.9
02 14.06 Ю 3 24 км н/о +12.4 +10.9 91 +11 +11 1008.8 1000.8
03 14.06 ЮЗ 3 30 км н/о +12.3 +10.6 89 +11 +11 1008.9 1000.9
04 14.06 ЮЗ 3 29 км н/о +12.4 +10.7 89 +11 +11 1009.2 1001.2
05 14.06 ЮЗ 4 35 км н/о +12.7 +10.6 87 +11 +11 1009.3 1001.2
06 14.06 Ю 3 15 км слаб. ливневой дождь н/о +13.0 +10.8 86 +12 +12 1009.6 1001.6 +12.0 0.4
07 14.06 ЮЗ 4 40 км в посл. час дождь н/о +13.5 +11.3 87 +12 +12 1009.8 1001.7
08 14.06 ЮЗ 5 30 км н/о +14.5 +10.9 79 +13 +13 1010.2 1002.2
09 14.06 ЮЗ 5 24 км н/о +15.9 +12.0 78 +15 +15 1010.4 1002.5
10 14.06 ЮЗ 5 40 км н/о +16.0 +11.6 75 +15 +15 1010.8 1002.8
11 14.06 ЮЗ 5 40 км н/о +15.5 +10.9 74 +14 +14 1011.3 1003.3
12 14.06 ЮЗ 5 35 км н/о +17.3 +11.3 68 +17 +17 1011.2 1003.3 0.0
13 14.06 ЮЗ 5 40 км в посл. час дождь н/о +16.3 +10.6 69 +15 +15 1011.4 1003.4
14 14.06 Ю 4 10 км н/о +17.4 +13.1 76 +17 +17 1011.7 1003.8
15 14.06 Ю 6 30 км н/о +16.5 +11.5 72 +15 +15 1012.0 1004.0
16 14.06 Ю 5 35 км н/о +16.9 +11.0 68 +16 +16 1011.5 1003.6
17 14.06 Ю 4 30 км н/о +17.1 +9.9 63 +17 +17 1011.4 1003.4
18 14.06 ЮЗ 4 40 км н/о +15.9 +9.3 65 +15 +15 1011.9 1004.0 +18.0 0.0
19 14.06 ЮЗ 3 30 км н/о +14.8 +8.9 68 +14 +14 1011.9 1003.9
20 14.06 Ю 2 40 км н/о +13.2 +8.8 75 +13 +13 1012.2 1004.1
21 14.06 ЮЗ 1 30 км н/о +10.8 +8.5 86 +10 +10 1012.5 1004.4
22 14.06 ЮЗ 1 30 км н/о +10.1 +8.7 91 +10 +10 1012.8 1004.7
23 14.06 З 1 17 км н/о +9.4 +8.3 93 +10 +10 1012.7 1004.6
00 15.06 ЮЗ 1 15 км н/о +9.3 +8.5 95 +10 +10 1012.8 1004.6
01 15.06 З 1 13 км н/о +9.2 +8.5 95 +9 +9 1012.6 1004.5
02 15.06 З 1 10 км дымка н/о +9.2 +8.5 95 +9 +9 1012.2 1004.0
03 15.06 СВ 1 6000 м дымка н/о +8.6 +8.0 96 +8 +8 1012.2 1004.0
04 15.06 штиль 0 4200 м дымка н/о +8.7 +8.2 97 +8 +8 1012.5 1004.3
05 15.06 С 1 6000 м в посл. час туман н/о +7.9 +7.4 97 +8 +8 1012.6 1004.4
06 15.06 штиль 0 14 км н/о +11.5 +11.1 97 +11 +11 1012.5 1004.4 +7.6
07 15.06 Ю 3 22 км н/о +15.2 +11.6 79 +15 +15 1012.5 1004.5
08 15.06 Ю 4 45 км н/о +16.0 +10.8 71 +15 +15 1012.6 1004.6
09 15.06 Ю 4 45 км н/о +15.5 +10.3 71 +15 +15 1012.7 1004.8
10 15.06 Ю 4 35 км н/о +17.7 +10.7 64 +17 +17 1012.7 1004.8
11 15.06 ЮЗ 6 45 км н/о +16.7 +10.4 66 +16 +16 1013.0 1005.1
12 15.06 ЮЗ 6 45 км н/о +16.9 +9.1 60 +16 +16 1013.5 1005.5
13 15.06 Ю 4 26 км слаб. ливневой дождь н/о +16.3 +11.5 73 +16 +16 1013.6 1005.6
14 15.06 Ю 4 8000 м слаб. ливневой дождь н/о +14.7 +11.3 80 +13 +13 1013.9 1005.9
15 15.06 Ю 4 40 км в посл. час дождь н/о +15.7 +10.8 73 +15 +15 1013.8 1005.8
16 15.06 Ю 4 25 км слаб. ливневой дождь н/о +15.5 +11.9 79 +15 +15 1013.7 1005.7
17 15.06 Ю 4 30 км в посл. час дождь н/о +15.1 +11.4 79 +14 +14 1013.7 1005.7
18 15.06 ЮЗ 3 17 км дождь н/о +13.9 +12.3 90 +13 +13 1013.9 1005.8 +18.3 0.6
19 15.06 Ю 3 27 км в посл. час дождь н/о +13.3 +11.9 91 +12 +12 1013.8 1005.8
20 15.06 Ю 3 24 км н/о +13.1 +11.9 92 +12 +12 1014.0 1005.9
21 15.06 Ю 2 23 км н/о +13.0 +11.8 92 +12 +12 1014.3 1006.3
22 15.06 Ю 2 16 км н/о +12.5 +11.4 93 +11 +11 1014.8 1006.7
23 15.06 ЮЗ 2 16 км н/о +11.3 +10.1 92 +10 +10 1015.2 1007.1
00 16.06 ЮЗ 2 11 км н/о +10.0 +9.0 93 +9 +9 1015.5 1007.3 0.4
01 16.06 ЮЗ 1 5000 м дымка н/о +9.6 +8.8 95 +9 +9 1015.7 1007.5
02 16.06 З 1 1100 м в посл. час туман н/о +7.7 +6.9 95 +8 +8 1015.9 1007.7
03 16.06 З 1 1400 м в посл. час туман н/о +6.8 +6.1 95 +7 +7 1015.7 1007.5
04 16.06 штиль 0 1700 м в посл. час туман н/о +6.7 +6.1 96 +6 +6 1016.0 1007.7
05 16.06 ЮЗ 1 6000 м в посл. час морось н/о +8.8 +8.3 97 +9 +9 1016.1 1007.9
06 16.06 Ю 2 16 км н/о +12.2 +11.7 97 +11 +11 1016.3 1008.2 +6.4 0.4
07 16.06 Ю 3 19 км н/о +13.7 +13.1 96 +12 +12 1016.5 1008.4
08 16.06 Ю 4 30 км в посл. час дождь н/о +14.5 +12.8 90 +13 +13 1016.6 1008.6
09 16.06 Ю 5 6000 м ливневой дождь н/о +14.7 +12.3 86 +13 +13 1016.9 1008.9
10 16.06 Ю 4 3400 м дождь н/о +14.5 +13.4 93 +13 +13 1017.0 1008.9
11 16.06 ЮЗ 5 30 км в посл. час дождь н/о +15.6 +14.7 94 +14 +14 1017.1 1009.0
12 16.06 ЮЗ 5 25 км слаб. ливневой дождь н/о +15.9 +13.9 88 +15 +15 1017.3 1009.3 3
13 16.06 ЮЗ 5 30 км в посл. час дождь н/о +16.5 +13.0 80 +16 +16 1017.6 1009.6
14 16.06 ЮЗ 5 30 км н/о +16.5 +12.5 77 +16 +16 1017.9 1009.9
15 16.06 ЮЗ 5 30 км н/о +16.9 +12.1 73 +16 +16 1018.0 1010.0
16 16.06 ЮЗ 5 28 км н/о +16.9 +11.9 72 +16 +16 1018.3 1010.3
17 16.06 ЮЗ 5 30 км н/о +18.0 +12.3 69 +18 +18 1018.1 1010.1
18 16.06 ЮЗ 5 30 км н/о +16.6 +10.8 69 +16 +16 1018.4 1010.4 +18.4 3
19 16.06 ЮЗ 4 35 км н/о +16.0 +10.8 71 +15 +15 1018.5 1010.5
20 16.06 ЮЗ 4 40 км н/о +14.9 +10.9 77 +14 +14 1018.7 1010.7
21 16.06 ЮЗ 3 35 км н/о +14.3 +11.2 82 +13 +13 1019.1 1011.0
22 16.06 ЮЗ 3 30 км н/о +14.0 +11.3 84 +13 +13 1019.2 1011.1
23 16.06 ЮЗ 3 30 км н/о +13.4 +11.0 85 +12 +12 1018.8 1010.7
00 17.06 ЮЗ 2 26 км н/о +12.4 +10.2 86 +11 +11 1018.8 1010.7
01 17.06 Ю 1 15 км н/о +11.5 +10.0 90 +11 +11 1018.9 1010.7
02 17.06 Ю 1 6000 м дым н/о +10.0 +9.0 93 +10 +10 1018.6 1010.4
03 17.06 Ю 1 6000 м дымка н/о +8.8 +7.9 94 +9 +9 1018.6 1010.3
04 17.06 Ю 1 9000 м дымка н/о +9.0 +8.3 95 +8 +8 1018.5 1010.3
05 17.06 Ю 1 10 км н/о +11.2 +10.8 97 +11 +11 1018.6 1010.4
06 17.06 ЮЗ 3 24 км н/о +13.8 +13.2 96 +13 +13 1018.6 1010.5 +8.6
07 17.06 ЮЗ 3 35 км н/о +15.2 +12.2 82 +15 +15 1019.0 1011.0
08 17.06 ЮЗ 3 35 км н/о +16.1 +10.6 70 +16 +16 1018.9 1010.8
09 17.06 ЮЗ 4 22 км н/о +18.6 +12.0 65 +19 +19 1018.6 1010.6
10 17.06 ЮЗ 4 35 км н/о +17.7 +10.3 62 +17 +17 1018.5 1010.6
11 17.06 ЮЗ 4 30 км н/о +17.1 +10.5 65 +17 +17 1018.3 1010.3
12 17.06 ЮЗ 5 45 км н/о +19.5 +11.7 61 +21 +21 комфорт 1018.1 1010.2
13 17.06 ЮЗ 5 50 км н/о +19.1 +10.8 59 +20 +20 1017.8 1009.9
14 17.06 ЮЗ 5 45 км н/о +19.3 +10.7 57 +20 +20 1017.6 1009.7
15 17.06 ЮЗ 5 26 км н/о +19.4 +10.3 56 +20 +20 1017.3 1009.4
16 17.06 ЮЗ 4 35 км н/о +18.8 +10.6 59 +19 +19 1017.1 1009.1
17 17.06 ЮЗ 4 45 км н/о +17.7 +10.5 63 +17 +17 1016.9 1009.0
18 17.06 ЮЗ 5 40 км н/о +17.2 +10.6 65 +17 +17 1016.8 1008.9 +20.4
19 17.06 ЮЗ 3 45 км н/о +15.8 +10.4 70 +16 +16 1016.8 1008.8
20 17.06 Ю 1 35 км н/о +14.4 +10.5 77 +15 +15 1016.8 1008.8

 

Местоположение метеостанции Чарлвуд (Великобритания): широта 51.23 долгота -0.38 высота над уровнем моря 68 м.

В архиве по умолчанию представлена погода в Чарлвуде за последнюю неделю. Архивные данные за месяц целиком и за предыдущие месяцы, начиная с января 2011 года, Вы можете получить, выбрав интересующий диапазон дат из раскрывающегося списка и нажав кнопку "Ввод!".


*Определитесь, кто Вы:
робот инопланетянин человек

Внимание! Время в таблицах - всемирное. Для получения местного времени необходимо прибавить поправку, которая равна 0 ч.

Смотрите также архив погоды в соседних городах и на ближайших метеорологических станциях:

Погода на Аэродроме Кенли (Великобритания) (22 км)
Погода в Фарнборо (Великобритания) (28 км)
Погода в Аэропорту Хитроу (Великобритания) (28 км)
Погода в Лондоне (Великобритания) (35 км)
Погода в Норхолте (Великобритания) (36 км)
Погода в Одихеме (Великобритания) (40 км)
Погода в Аэропорту Брайтон-Сити (Великобритания) (45 км)
Погода в Грейвзенде (Великобритания) (54 км)
Погода в Хай-Уикоме (Великобритания) (58 км)
Погода на Острове Торвер (Великобритания) (59 км)

Пояснения к столбцам:

Ветер - указаны скорость ветра в м/с - средняя за 10 мин, порывы в срок и между сроками (в фигурных скобках) и направление, откуда дует ветер: С - северный, СВ - северо-восточный, В - восточный, ЮВ - юго-восточный, Ю - южный, ЮЗ - юго-западный, З - западный, СЗ - северо-западный.
Видимость - горизонтальная дальность видимости в метрах или километрах. При видимости от 1 до 10 км при отсутствии осадков обычно наблюдается дымка, при ухудшении видимости до 1 км и менее - туман. В сухую погоду видимость может ухудшаться дымом, пылью или мглою.
Явления - указаны атмосферные явления, наблюдавшиеся в срок или в последний час перед сроком; фигурными скобками обозначены явления, наблюдавшиеся между сроками (за 1-3 часа до срока); квадратными скобками обозначены град или гололедные отложения с указанием их диаметра в мм.
Облачность - указаны через наклонную черту общая и нижняя облачность в баллах и высота нижней границы облаков в метрах; квадратными скобками обозначены формы облаков: Ci - перистые, Cs - перисто-слоистые, Cc - перисто-кучевые, Ac - высококучевые, As - высокослоистые, Sc - слоисто-кучевые, Ns - слоисто-дождевые, Cu - кучевые, Cb - кучево-дождевые. Подробнее классификацию облаков см. в Атласе облаков (PDF).
T - Температура воздуха - температура, измеренная на высоте 2 м над землей.
Td - Температура точки росы - температура, при понижении до которой содержащийся в воздухе водяной пар достигнет насыщения.
f - Относительная влажность воздуха - влажноcть воздуха, измеренная на высоте 2 м над землей.
Te - Эффективная температура - температура, которую ощущает одетый по сезону человек в тени. Характеристика душности погоды. При расчете учитывается влияние влажности воздуха и скорости ветра на теплоощущения человека.
Tes - Эффективная температура на солнце - температура, которую ощущает человек, с поправкой на солнечный нагрев. Характеристика знойности погоды. Зависит от высоты солнца над горизонтом, облачности и скорости ветра. Ночью, в пасмурную погоду, а также при ветре 12 м/с и более поправка равна нулю.
P - Атмосферное давление - приведенное к уровню моря атмосферное давление.
Po - Атмосферное давление - измеренное на уровне метеостанции атмосферное давление.
Tmin - Минимальная температура - минимум температуры воздуха на высоте 2 м над землей.
Tmax - Максимальная температура - максимум температуры воздуха на высоте 2 м над землей.
R - Количество осадков - Количество выпавших осадков за период времени, мм. При наведении курсора мыши на число - период времени, за который выпало указанное количество осадков.
R24 - Количество осадков - Количество выпавших осадков за 24 часа, мм.
S - Снежный покров - Высота снежного покрова, см. При наведении курсора мыши на число - состояние снежного покрова и степень покрытия местности в баллах.